Location: C�mpuri de-Sus
(45.9500°N, 22.5500°E)
Time: 06:48:22
(UTC+00:00)

Cosmos 839 Rocket - Pass Details

Date: 08 December 2023
Orbit: 960 x 2092 km, 65.9° (Epoch: 04 March)

Event Time Altitude Azimuth Distance (km) Brightness Sun altitude
Exits shadow 00:51:42 51° 62° (ENE) 2,506 6.1 -51.8°
Drops below altitude 10° 01:00:07 10° 38° (NE) 4,437 7.8 -50.4°
Sets 01:03:22 0° 36° (NE) 5,348 8.3 -49.9°
